Location: Gro�sch�nbrunn
(49.5760°N, 11.8868°E)
Time: 22:43:12
(UTC+00:00)

SPOT 3 Rocket - Pass Details

Date: 18 September 2020
Orbit: 780 x 794 km, 98.7° (Epoch: 30 October)

Event Time Altitude Azimuth Distance (km) Brightness Sun altitude
Exits shadow 20:03:36 31° 208° (SSW) 1,349 4.6 -25.7°
Maximum altitude 20:05:38 46° 261° (W) 1,038 4.4 -26.0°
Drops below altitude 10° 20:10:37 10° 335° (NNW) 2,346 6.8 -26.6°
Sets 20:13:02 0° 341° (NNW) 3,279 7.7 -26.9°
